Regional Weather Roundup
Issued by NWS

Home | Current Version | Previous Version | Text Only | Print | Product List | Glossary Off
Versions: 1 2 3 4 5 6 7 8 9 10 11 12 13 14 15 16 17 18 19 20 21 22 23 24 25 26 27 28 29 30 31 32 33 34 35 36 37 38 39 40 41 42 43 44 45 46 47 48 49 50

000
ASUS43 KMPX 220010
RWRMN
WEATHER ROUNDUP FOR MINNESOTA
NATIONAL WEATHER SERVICE TWIN CITIES/CHANHASSEN MN
600 PM CST WED FEB 21 2018


NOTE: "FAIR" INDICATES FEW OR NO CLOUDS BELOW 12,000 FEET WITH NO
SIGNIFICANT WEATHER AND/OR OBSTRUCTIONS TO VISIBILITY. N/A MEANS
CURRENT SKY AND/OR WEATHER CONDITIONS ARE NOT AVAILABLE.

MNZ060>063-068>070-220100-
   Twin Cities Metro

CITY           SKY/WX    TMP DP  RH WIND       PRES   REMARKS
TWIN CITIES    FAIR      18   3  52 SW7       30.64S WCI   9
6HR MIN TEMP:  14; 6HR MAX TEMP:  19;

ST PAUL        FAIR      17   3  54 SW5       30.66R WCI  10
CRYSTAL        FAIR      16   0  49 SW5       30.62S WCI   9
BLAINE         PTCLDY    19   0  42 SW6       30.63R WCI  11
LAKEVILLE      FAIR      12   5  73 CALM      30.63S
EDEN PRAIRIE   FAIR      15   2  56 S5        30.63R WCI   8
6HR MIN TEMP:  13; 6HR MAX TEMP:  18;

SOUTH ST PAUL  FAIR      18   4  55 CALM      30.64R
LAKE ELMO      FAIR      14   7  73 S5        30.64R WCI   6
$$
MNZ001>005-007-008-013>017-022>024-027-028-220100-
   Northwest Minnesota

CITY           SKY/WX    TMP DP  RH WIND       PRES   REMARKS
BEMIDJI        FAIR      15  -3  46 W6        30.48F WCI   6
HALLOCK        FAIR       7  -2  66 SW8       30.50S WCI  -6
ROSEAU         FAIR       7  -2  66 SW9       30.48F WCI  -7
WARROAD        FAIR       5  -2  72 SW7       30.48S WCI  -7
THIEF RVR FALL FAIR       3  -4  72 S14       30.52R WCI -15
CROOKSTON      FAIR       7   0  72 S13       30.54S WCI  -9
FOSSTON        FAIR       1  -8  66 SW5       30.51F WCI  -8
DETROIT LAKES  FAIR      12  -4  48 SW5       30.52F WCI   4
MOORHEAD       FAIR       9   0  66 S9        30.55F WCI  -5
PARK RAPIDS    FAIR       5  -6  60 S8        30.50S WCI  -8
MAHNOMEN       FAIR       4  -5  65 S9        30.51S WCI -10
$$
MNZ006-009>011-018-025>026-220100-
   North Central Minnesota

CITY           SKY/WX    TMP DP  RH WIND       PRES   REMARKS
BAUDETTE       FAIR       9  -3  58 W7        30.47R WCI  -2
FLAG ISLAND    FAIR       7  -2  66 S10       30.45S WCI  -8
INTL FALLS     FAIR      16   1  51 W7        30.46S WCI   6
6HR MIN TEMP:  11; 6HR MAX TEMP:  20;

WASKISH        FAIR       3  -4  72 W8        30.49F WCI -10
BIG FORK       FAIR      16   1  53 SW7       30.48S WCI   6
LONGVILLE      FAIR      16  -2  45 SW3       30.51F
GRAND RAPIDS   FAIR      19   1  45 W5        30.52S WCI  12
CRANE LAKE     FAIR      16   3  57 S3        30.50R
ORR            FAIR      18   0  45 SW6       30.46R WCI   9
COOK             N/A     18   1  49 SW6       30.49R WCI   9
WALKER         FAIR      15  -3  46 S7        30.50S WCI   5
$$
MNZ012-019>021-037-220100-
   Northeast Minnesota

CITY           SKY/WX    TMP DP  RH WIND       PRES   REMARKS
DULUTH         FAIR      19   3  49 SW8       30.51S WCI   9
6HR MIN TEMP:  15; 6HR MAX TEMP:  23;

ELY            FAIR      16   3  57 SW3       30.47S
HIBBING        FAIR      19   1  45 SW3       30.49R
EVELETH        FAIR     N/A N/A N/A SW8       30.50R
DULUTH HARBOR  FAIR      21   7  53 SW10      30.58S WCI  10
TWO HARBORS    FAIR      21   9  58 SW6       30.52R WCI  14
GRAND MARAIS     N/A     23   6  48 W5        30.54R WCI  17
G MARAIS ARPRT FAIR      16   1  53 W3        30.46R
$$
MNZ029>031-032-039>041-046>048-054>057-064-220100-
   West Central Minnesota

CITY           SKY/WX    TMP DP  RH WIND       PRES   REMARKS
FERGUS FALLS   FAIR       9   0  66 S6        30.55F WCI  -1
WHEATON        FAIR      12   0  57 S8        30.58R WCI   1
MORRIS         FAIR      10   1  67 CALM      30.55S
ALEXANDRIA     FAIR      10  -1  61 SW6       30.54F WCI   0
ELBOW LAKE     FAIR       8   1  72 S6        30.55S WCI  -2
WADENA         FAIR      10  -2  56 S5        30.53S WCI   2
GLENWOOD       FAIR       9   0  66 S6        30.56R WCI  -1
APPLETON       FAIR      16   1  53 CALM      30.58S
BENSON         FAIR      14   1  57 W3        30.59S
ORTONVILLE     FAIR      12   0  57 S5        30.56S WCI   4
MADISON        FAIR      18   7  62 SW3       30.58R
WILLMAR        FAIR      12   3  67 CALM      30.61R
$$
MNZ033>034-036-042>043-049>051-058-059-220100-
   Central Minnesota

CITY           SKY/WX    TMP DP  RH WIND       PRES   REMARKS
ST CLOUD       FAIR      12  -1  56 S6        30.59F WCI   3
6HR MIN TEMP:  11; 6HR MAX TEMP:  16;

SAUK CENTRE    FAIR      10   0  63 SE6       30.57S WCI   0
PAYNESVILLE    FAIR      14   2  58 S5        30.58S WCI   6
AITKIN         FAIR      14   0  52 S7        30.53S WCI   4
PINE RIVER     FAIR      16   0  48 S3        30.54F
BRAINERD       FAIR      15  -1  49 S8        30.54S WCI   4
STAPLES        FAIR      12  -6  44 CALM      30.54S
LONG PRAIRIE   FAIR      12   0  57 S3        30.56S
LITTLE FALLS   FAIR      12  -8  40 S3        30.59R
LITCHFIELD     FAIR      12   3  67 CALM      30.60S
BUFFALO        FAIR      16   4  59 CALM      30.62S
MAPLE LAKE     FAIR      16   3  58 CALM      30.61S
HUTCHINSON     FAIR      15   4  63 CALM      30.62S
$$
MNZ037-044-045-052-053-220100-
   East Central Minnesota

CITY           SKY/WX    TMP DP  RH WIND       PRES   REMARKS
PRINCETON      FAIR      16   1  53 S5        30.60S WCI   9
CAMBRIDGE      FAIR      18   3  53 S5        30.62R WCI  11
RUSH CITY      FAIR      16   0  48 SW3       30.61S
MOOSE LAKE     FAIR      18   1  49 S5        30.54F WCI  11
HINCKLEY       FAIR      14   1  57 S5        30.59S WCI   6
CLOQUET        FAIR      18   1  49 S7        30.52F WCI   8
MCGREGOR       FAIR      18   3  53 S6        30.55R WCI   9
$$
MNZ071>073-080-081-089-090-097-098-220100-
   Southwest Minnesota

CITY           SKY/WX    TMP DP  RH WIND       PRES   REMARKS
MONTEVIDEO     FAIR      16  -2  45 CALM      30.59S
GRANITE FALLS  FAIR      13   5  69 S5        30.61S WCI   6
CANBY          FAIR      18   4  54 SW3       30.58R
MARSHALL       FAIR      13   2  61 S5        30.58F WCI   5
REDWOOD FALLS  FAIR      15   2  56 W5        30.61R WCI   8
OLIVIA         FAIR      18   5  57 S5        30.60R WCI  11
PIPESTONE      FAIR      10   1  67 CALM      30.52F
WORTHINGTON    FAIR      14   6  70 CALM      30.56S
JACKSON        CLOUDY    18   5  57 CALM      30.58S
TRACY          FAIR      14   6  70 CALM      30.56F
SLAYTON        FAIR      11   5  77 CALM      30.55S
$$
MNZ065>067-074>077-082>085-091>093-220100-
   South Central Minnesota

CITY           SKY/WX    TMP DP  RH WIND       PRES   REMARKS
MANKATO        FAIR      15   4  61 W6        30.64R WCI   6
NEW ULM        FAIR      14   3  62 S3        30.62S
ST JAMES       FAIR      16   7  67 CALM      30.63S
FAIRMONT       CLOUDY    15   5  64 CALM      30.62R
GLENCOE        FAIR      16   6  65 CALM      30.62R
FARIBAULT      FAIR      16   7  67 CALM      30.63S
OWATONNA       FAIR      14   9  79 CALM      30.62R
WASECA         FAIR      14   9  79 CALM      30.64R
ALBERT LEA     FAIR      19  10  68 CALM      30.61R
$$
MNZ078>079-086>088-094>096-220100-
   Southeast Minnesota

CITY           SKY/WX    TMP DP  RH WIND       PRES   REMARKS
ROCHESTER      FAIR      17   7  64 CALM      30.62R
6HR MIN TEMP:  15; 6HR MAX TEMP:  20;

RED WING       FAIR      18   1  49 SW5       30.65R WCI  11
STANTON        FAIR      16   7  67 CALM      30.63S
DODGE CENTER   FAIR      16   9  73 CALM      30.60S
WINONA         FAIR      21  10  63 NW3       30.65S
AUSTIN         FAIR      19  10  68 CALM      30.62R
PRESTON        FAIR      18  12  76 CALM      30.62R
$$
ABBREVIATIONS USED IN REMARKS
   TC - TEMPERATURES IN CELSIUS
  WCI - WIND CHILL INDEX
   HX - HEAT INDEX
  VSB - VISIBILITY
$$



USA.gov is the U.S. government's official web portal to all federal, state and local government web resources and services.